Flag for Lithuania Weather past 2 weeks in Kaunas, Lithuania

Now
28 °F

Partly sunny.


Feels Like: 19 °F
Forecast: 30 / 38 °F
Wind: 10 mph from Southeast

Location: Kaunas

Current Time: Jan 30, 2015 at 9:08:46 AM

Latest Report: Jan 30, 2015 at 8:20 AM


Visibility: N/A

Pressure: 29.21 "Hg

Humidity: 86%

Dew point: 25 °F

Location of KaunasLocation

Historic Weather in Kaunas — Graph

°F

Kaunas temperature yesterday

Maximum temperature yesterday: 34 °F (at 4:50 PM)
Minimum temperature yesterday: 30 °F (at 1:50 AM)
Average temperature yesterday: 32 °F

Past Weeks' High & Low Weather Summary

 TemperatureHumidityPressure
High39 °F (Jan 17, 5:20 PM)100% (Jan 23, 4:50 PM)30.21 "Hg (Jan 23, 4:50 PM)
Low23 °F (Jan 19, 12:20 AM)64% (Jan 20, 12:50 PM)29.21 "Hg (Jan 30, 6:50 AM)
Average31 °F87%29.95 "Hg
* Reported Jan 15 7:20 AM — Jan 30 7:50 AM, Kaunas, Weather by CustomWeather, © 2014

Note: Actual official high and low records may vary slightly from our data, if they occured in-between our weather recording intervals... More about our weather records

Advertising

Kaunas weather history for previous 24 hours

 ConditionsComfort  
Time TempWeatherWind HumidityBarometerVisibility
7:50 AM
Jan 30
30 °FPassing clouds.12 mph80%29.21 "HgN/A
7:20 AM30 °FOvercast.9 mph80%29.21 "HgN/A
6:50 AM28 °FClear.8 mph86%29.21 "Hg10 mi
6:20 AM28 °FPassing clouds.8 mph86%29.24 "Hg6 mi
5:20 AM30 °FPassing clouds.7 mph80%29.24 "Hg6 mi
4:50 AM30 °FPassing clouds.9 mph86%29.24 "Hg5 mi
4:20 AM30 °FOvercast.8 mph86%29.24 "Hg4 mi
3:50 AM28 °FOvercast.5 mph93%29.24 "Hg4 mi
3:20 AM28 °FIce fog.6 mph86%29.24 "Hg3 mi
2:50 AM28 °FChilly.6 mph86%29.27 "Hg4 mi
2:20 AM30 °FPassing clouds.7 mph80%29.27 "HgN/A
1:50 AM30 °FPassing clouds.8 mph80%29.27 "Hg6 mi
1:20 AM30 °FOvercast.8 mph86%29.27 "Hg6 mi
12:50 AM30 °FPassing clouds.8 mph80%29.27 "HgN/A
12:20 AM30 °FChilly.9 mph86%29.27 "HgN/A
11:50 PM
Jan 29
32 °FMostly cloudy.10 mph80%29.27 "HgN/A
11:20 PM32 °FLight rain. Overcast.10 mph80%29.27 "HgN/A
10:50 PM32 °FLight rain. Mostly cloudy.12 mph87%29.27 "Hg6 mi
10:20 PM32 °FMostly cloudy.10 mph87%29.27 "HgN/A
9:50 PM32 °FMostly cloudy.9 mph80%29.30 "HgN/A
9:20 PM32 °FLight rain. Overcast.12 mph80%29.27 "HgN/A
8:50 PM32 °FLight rain. Mostly cloudy.10 mph87%29.30 "HgN/A
8:20 PM32 °FPassing clouds.9 mph80%29.30 "HgN/A
7:50 PM32 °FMostly cloudy.9 mph87%29.30 "HgN/A
7:20 PM32 °FMostly cloudy.10 mph87%29.30 "HgN/A
6:50 PM32 °FMostly cloudy.10 mph87%29.30 "HgN/A
6:20 PM32 °FOvercast.9 mph87%29.30 "HgN/A
5:50 PM32 °FMostly cloudy.8 mph87%29.30 "HgN/A
5:20 PM34 °FMostly cloudy.9 mph81%29.30 "HgN/A
4:50 PM34 °FOvercast.10 mph81%29.30 "HgN/A
4:20 PM32 °FMostly cloudy.10 mph87%29.30 "HgN/A
3:50 PM32 °FLight rain. Low clouds.12 mph87%29.27 "Hg6 mi
3:20 PM32 °FLight rain. Overcast.12 mph87%29.27 "Hg6 mi
2:50 PM32 °FLight rain. Overcast.12 mph87%29.27 "HgN/A
2:20 PM32 °FLight rain. Overcast.13 mph87%29.27 "Hg6 mi
1:50 PM32 °FLight rain. Mostly cloudy.13 mph87%29.27 "Hg5 mi
1:20 PM32 °FRain. Ice fog.13 mph87%29.27 "Hg1 mi
12:50 PM32 °FRain. Ice fog.13 mph80%29.30 "Hg1 mi
12:20 PM32 °FLight snow. Ice fog.13 mph80%29.30 "Hg2 mi
11:55 AM30 °FSnow. Ice fog.13 mph86%29.30 "Hg1 mi
11:20 AM32 °FLight snow. Ice fog.15 mph80%29.30 "Hg2 mi
10:50 AM32 °FLight snow. Ice fog.16 mph75%29.30 "Hg3 mi
10:20 AM32 °FLight rain. Overcast.16 mph69%29.30 "HgN/A
9:50 AM32 °FOvercast.16 mph69%29.30 "HgN/A
9:20 AM32 °FOvercast.16 mph69%29.30 "HgN/A
Weather by CustomWeather, © 2014

See weather overviewHow to use our weather pages